Berlin, NH

7:25 AM EDT on October 18, 2017 (GMT -0400)
Berlin Municipal

Weather History for KBML - April, 2013

Change the Weather History Date:

Sunday, April 21, 2013

  Actual Average Record
Temperature  
Mean Temperature 34 °F -  
Max Temperature 46 °F 51 °F 75 °F (2008)
Min Temperature 23 °F 24 °F 19 °F (2001)
Degree Days  
Heating Degree Days 30    
Moisture  
Dew Point 17 °F    
Average Humidity 55    
Maximum Humidity 81    
Minimum Humidity 24    
Precipitation  
Precipitation 0.00 in - - ()
Sea Level Pressure  
Sea Level Pressure 30.48 in    
Wind  
Wind Speed 7 mph (NW)    
Max Wind Speed 17 mph    
Max Gust Speed 22 mph    
Visibility 9 miles    
Events Snow    
Averages and records for this station are not official NWS values.
T = Trace of Precipitation, MM = Missing Value Source: NWS Daily Summary

Daily Weather History Graph

Daily Weather History Graph

Search for Another Location

Airport or City:

Trip Planner

Search our weather history database for the weather conditions in past years. The results will help you decide how hot, cold, wet, or windy it might be!

Date:

Astronomy

Apr. 21, 2013 Rise Set
Actual Time 5:50 AM EDT 7:37 PM EDT
Civil Twilight 5:19 AM EDT 8:08 PM EDT
Nautical Twilight 4:41 AM EDT 8:46 PM EDT
Astronomical Twilight 4:00 AM EDT 9:27 PM EDT
Moon 3:09 PM EDT (4/21) 3:21 AM EDT (4/21)
Length of Visible Light 14h 49m
Length of Day
13h 47m
Waxing Gibbous, 79% of the Moon is Illuminated
Apr 21
Waxing Gibbous
Apr 25
Full
May 2
Last Quarter
May 9
New
May 18
First Quarter

Hourly Weather History & Observations

Time (EDT) Temp. Windchill Dew Point Humidity Pressure Visibility Wind Dir Wind Speed Gust Speed Precip Events Conditions
12:52 AM 33.1 °F 26.9 °F 23.0 °F 66% 30.22 in 10.0 mi Variable 6.9 mph 17.3 mph 0.00 in   Overcast
1:52 AM 33.1 °F 26.1 °F 19.9 °F 59% 30.24 in 8.0 mi WNW 8.1 mph - 0.00 in Snow Light Snow
2:52 AM 32.0 °F 23.0 °F 19.9 °F 61% 30.26 in 9.0 mi WNW 11.5 mph 20.7 mph 0.00 in   Overcast
3:52 AM 30.9 °F 26.2 °F 19.9 °F 64% 30.30 in 10.0 mi Variable 4.6 mph - N/A   Overcast
4:52 AM 30.9 °F 24.3 °F 18.0 °F 59% 30.32 in 10.0 mi Variable 6.9 mph 17.3 mph N/A   Overcast
5:23 AM 28.4 °F 20.4 °F 21.2 °F 74% 30.32 in 1.8 mi NW 8.1 mph 17.3 mph 0.00 in Snow Light Snow
5:26 AM 28.4 °F 21.2 °F 21.2 °F 74% 30.32 in 1.2 mi Variable 6.9 mph 17.3 mph 0.00 in Snow Light Snow
5:33 AM 28.4 °F 21.2 °F 23.0 °F 80% 30.32 in 1.8 mi NW 6.9 mph - 0.00 in Snow Light Snow
5:36 AM 28.4 °F 22.2 °F 21.2 °F 74% 30.32 in 3.0 mi NW 5.8 mph - 0.00 in Snow Light Snow
5:52 AM 30.0 °F 24.1 °F 18.0 °F 61% 30.38 in 10.0 mi NW 5.8 mph - 0.00 in   Overcast
6:52 AM 28.9 °F 23.9 °F 18.0 °F 64% 30.43 in 7.0 mi West 4.6 mph - 0.00 in Snow Light Snow
7:52 AM 30.9 °F 24.3 °F 17.1 °F 57% 30.47 in 10.0 mi WNW 6.9 mph - 0.00 in   Overcast
8:52 AM 30.9 °F 24.3 °F 17.1 °F 57% 30.50 in 10.0 mi Variable 6.9 mph 18.4 mph N/A   Overcast
10:52 AM 35.1 °F 28.6 °F 17.1 °F 48% 30.55 in 10.0 mi West 8.1 mph - N/A   Overcast
11:52 AM 36.0 °F 28.0 °F 17.1 °F 46% 30.56 in 10.0 mi North 11.5 mph 18.4 mph N/A   Mostly Cloudy
12:52 PM 39.9 °F 34.5 °F 16.0 °F 38% 30.56 in 10.0 mi NNW 8.1 mph 19.6 mph N/A   Clear
1:52 PM 44.1 °F 36.5 °F 15.1 °F 31% 30.56 in 10.0 mi North 17.3 mph 21.9 mph N/A   Clear
2:52 PM 45.0 °F 40.6 °F 14.0 °F 29% 30.56 in 10.0 mi NNW 8.1 mph - N/A   Clear
3:52 PM 46.0 °F 41.9 °F 12.0 °F 25% 30.57 in 10.0 mi NNW 8.1 mph 16.1 mph N/A   Clear
4:52 PM 45.0 °F 39.3 °F 10.9 °F 25% 30.58 in 10.0 mi NNW 11.5 mph 21.9 mph N/A   Clear
5:52 PM 45.0 °F 40.6 °F 10.0 °F 24% 30.59 in 10.0 mi NNW 8.1 mph - N/A   Clear
6:52 PM 43.0 °F 38.8 °F 10.0 °F 26% 30.62 in 10.0 mi NNW 6.9 mph - N/A   Clear
7:52 PM 35.1 °F - 12.9 °F 40% 30.65 in 10.0 mi Calm Calm - N/A   Clear
8:52 PM 28.0 °F - 17.1 °F 63% 30.69 in 10.0 mi Calm Calm - N/A   Clear
9:52 PM 25.0 °F - 18.0 °F 75% 30.71 in 10.0 mi Calm Calm - N/A   Clear
10:52 PM 23.0 °F - 17.1 °F 78% 30.73 in 10.0 mi Calm Calm - N/A   Clear
11:52 PM 23.0 °F - 18.0 °F 81% 30.73 in 10.0 mi Calm Calm - N/A   Clear